Weather History for Tyler, TX

Change the Weather History Date:

Friday, June 28, 2013

  Actual Average Record
Temperature  
Mean Temperature 91 °F 81 °F  
Max Temperature 104 °F 90 °F 105 °F (1930)
Min Temperature 78 °F 72 °F 53 °F (1974)
Degree Days  
Heating Degree Days 0 0  
Month to date heating degree days 0 0  
Since 1 June heating degree days 0 0  
Since 1 July heating degree days 2013 2269  
Cooling Degree Days 26 16  
Month to date cooling degree days 475 400  
Year to date cooling degree days 872 769  
Since 1 June cooling degree days 475 400  
Growing Degree Days 41 (Base 50)    
Moisture  
Dew Point 66 °F    
Average Humidity 48    
Maximum Humidity 74    
Minimum Humidity 22    
Precipitation  
Precipitation 0.00 in 0.15 in 2.15 in (1940)
Month to date precipitation 1.97 4.54  
Year to date precipitation 16.01 23.47  
Snow  
Snow 0.00 in - - ()
Month to date snowfall 0.0  
Since 1 June snowfall 0.0  
Since 1 July snowfall 1.0  
Snow Depth 0.00 in    
Sea Level Pressure  
Sea Level Pressure 29.88 in    
Wind  
Wind Speed 9 mph (WSW)    
Max Wind Speed 15 mph    
Max Gust Speed 20 mph    
Visibility 10 miles    
Events      
T = Trace of Precipitation, MM = Missing Value Source: NWS Daily Summary

Daily Weather History Graph

Daily Weather History Graph

Search for Another Location

Airport:

Trip Planner

Search our weather history database for the weather conditions in past years. The results will help you decide how hot, cold, wet, or windy it might be!

Date:

Astronomy

Jun. 28, 2013 Rise Set
Actual Time 6:17 AM CDT 8:32 PM CDT
Civil Twilight 5:48 AM CDT 9:00 PM CDT
Nautical Twilight 5:14 AM CDT 9:35 PM CDT
Astronomical Twilight 4:36 AM CDT 10:13 PM CDT
Moon No Moon Rise 12:04 PM CDT (6/28)
Length of Visible Light 15h 12m
Length of Day
14h 15m
Waning Gibbous, 66% of the Moon is Illuminated
Jun 28
Waning Gibbous
Jun 29
Last Quarter
Jul 8
New
Jul 15
First Quarter
Jul 22
Full

Hourly Weather History & Observations

Time (CDT) Temp. Heat Index Dew Point Humidity Pressure Visibility Wind Dir Wind Speed Gust Speed Precip Events Conditions
12:53 AM 79.0 °F - 68.0 °F 69% 29.94 in 10.0 mi South 5.8 mph - N/A   Clear
1:53 AM 78.1 °F - 66.9 °F 68% 29.93 in 10.0 mi South 8.1 mph - N/A   Clear
2:53 AM 81.0 °F 83.3 °F 66.9 °F 62% 29.92 in 10.0 mi SSW 5.8 mph - N/A   Clear
3:53 AM 80.1 °F 82.9 °F 69.1 °F 69% 29.91 in 10.0 mi South 10.4 mph - N/A   Clear
4:53 AM 79.0 °F - 69.1 °F 72% 29.91 in 10.0 mi SSW 8.1 mph - N/A   Clear
5:53 AM 80.1 °F 82.9 °F 69.1 °F 69% 29.91 in 10.0 mi SSW 11.5 mph - N/A   Clear
6:53 AM 79.0 °F - 68.0 °F 69% 29.91 in 10.0 mi South 11.5 mph - N/A   Clear
7:53 AM 79.0 °F - 69.1 °F 72% 29.95 in 10.0 mi WSW 8.1 mph - N/A   Clear
8:42 AM 80.6 °F 83.9 °F 69.8 °F 70% 29.98 in 10.0 mi WSW 9.2 mph - N/A   Partly Cloudy
8:53 AM 81.0 °F 84.1 °F 69.1 °F 67% 29.96 in 10.0 mi WSW 11.5 mph - N/A   Clear
9:53 AM 84.9 °F 88.8 °F 69.1 °F 59% 29.95 in 10.0 mi SW 9.2 mph - N/A   Unknown
10:53 AM 89.1 °F 93.7 °F 69.1 °F 52% 29.93 in 10.0 mi WSW 13.8 mph - N/A   Unknown
11:53 AM 91.9 °F 95.9 °F 68.0 °F 45% 29.92 in 10.0 mi WSW 8.1 mph - N/A   Clear
12:53 PM 96.1 °F 99.3 °F 66.0 °F 37% 29.90 in 10.0 mi SW 9.2 mph - N/A   Clear
1:53 PM 98.1 °F 101.2 °F 64.9 °F 34% 29.87 in 10.0 mi SW 9.2 mph - N/A   Clear
2:53 PM 102.0 °F 104.6 °F 63.0 °F 28% 29.84 in 10.0 mi SW 9.2 mph - N/A   Clear
3:53 PM 102.0 °F 102.2 °F 59.0 °F 24% 29.81 in 10.0 mi Variable 5.8 mph - N/A   Clear
4:53 PM 104.0 °F 104.0 °F 57.9 °F 22% 29.80 in 10.0 mi NW 10.4 mph 19.6 mph N/A   Clear
5:53 PM 102.0 °F 103.3 °F 61.0 °F 26% 29.79 in 10.0 mi North 13.8 mph - N/A   Clear
6:53 PM 100.0 °F 103.0 °F 64.0 °F 31% 29.79 in 10.0 mi North 10.4 mph - N/A   Clear
7:53 PM 97.0 °F 100.4 °F 66.0 °F 36% 29.79 in 10.0 mi North 6.9 mph - N/A   Clear
8:53 PM 93.0 °F 96.4 °F 66.9 °F 42% 29.80 in 10.0 mi North 4.6 mph - N/A   Clear
9:53 PM 90.0 °F 92.8 °F 66.9 °F 46% 29.81 in 10.0 mi North 4.6 mph - N/A   Clear
10:53 PM 88.0 °F 89.6 °F 64.9 °F 46% 29.82 in 10.0 mi North 5.8 mph - N/A   Clear
11:53 PM 84.9 °F 86.1 °F 64.0 °F 49% 29.83 in 10.0 mi NNE 4.6 mph - N/A   Clear